Location: Slemon Park
(46.4340°N, 63.8219°W)
Time: 02:51:47
(UTC-04:00)

ISS - All Passes

Search period start: 28 February 2015 00:00
Search period end: 10 March 2015 01:00
Orbit: 397 x 408 km, 51.6° (Epoch: 27 February)

Date Brightness Start Highest point End Pass type
(mag) Time Alt. Az. Time Alt. Az. Time Alt. Az.
28 Feb - 09:39:51 10° S 09:42:04 17° SE 09:44:20 10° E daylight
28 Feb - 11:14:57 10° WSW 11:18:10 81° NNW 11:21:26 10° ENE daylight
28 Feb - 12:51:56 10° WNW 12:54:54 32° N 12:57:53 10° ENE daylight
28 Feb - 14:28:45 10° WNW 14:31:50 39° NNE 14:34:55 10° E daylight
28 Feb - 16:05:10 10° WNW 16:08:22 55° SSW 16:11:33 10° SE daylight
01 Mar - 10:22:04 10° SW 10:25:15 61° SSE 10:28:27 10° ENE daylight
01 Mar - 11:58:46 10° W 12:01:49 37° NNW 12:04:53 10° ENE daylight
01 Mar - 13:35:46 10° WNW 13:38:45 33° N 13:41:45 10° ENE daylight
01 Mar - 15:12:11 10° WNW 15:15:26 89° N 15:18:42 10° ESE daylight
01 Mar - 16:49:27 10° W 16:51:31 16° SW 16:53:32 10° S daylight
02 Mar - 09:29:24 10° SSW 09:32:22 35° SE 09:35:23 10° ENE daylight
02 Mar - 11:05:36 10° W 11:08:45 49° NNW 11:11:55 10° ENE daylight
02 Mar - 12:42:41 10° WNW 12:45:38 31° N 12:48:34 10° ENE daylight
02 Mar - 14:19:14 10° WNW 14:22:27 58° NNE 14:25:40 10° ESE daylight
02 Mar - 15:55:55 10° W 15:58:44 27° SW 16:01:31 10° SSE daylight
03 Mar - 08:37:06 10° S 08:39:33 20° SE 08:42:02 10° E daylight
03 Mar - 10:12:29 10° WSW 10:15:43 72° NNW 10:18:57 10° ENE daylight
03 Mar - 11:49:32 10° WNW 11:52:29 31° N 11:55:27 10° ENE daylight
03 Mar - 13:26:17 10° WNW 13:29:23 42° NNE 13:32:30 10° E daylight
03 Mar - 15:02:44 10° WNW 15:05:52 47° SW 15:08:59 10° SE daylight
04 Mar - 07:45:38 10° SSE 07:46:46 12° SE 07:48:00 10° ESE daylight
04 Mar - 09:19:31 10° SW 09:22:43 71° SSE 09:25:57 10° ENE daylight
04 Mar - 10:56:19 10° W 10:59:20 35° N 11:02:23 10° ENE daylight
04 Mar - 12:33:15 10° WNW 12:36:16 34° N 12:39:17 10° ENE daylight
04 Mar - 14:09:40 10° WNW 14:12:55 81° SSW 14:16:10 10° ESE daylight
04 Mar - 15:47:13 10° WSW 15:48:56 13° SW 15:50:33 10° SSW daylight
05 Mar - 08:26:44 10° SW 08:29:46 41° SE 08:32:51 10° ENE daylight
05 Mar - 10:03:05 10° W 10:06:13 45° NNW 10:09:20 10° ENE daylight
05 Mar - 11:40:10 10° WNW 11:43:06 31° N 11:46:03 10° ENE daylight
05 Mar - 13:16:40 10° WNW 13:19:54 65° NNE 13:23:07 10° ESE daylight
05 Mar - 14:53:27 10° W 14:56:06 23° SW 14:58:44 10° SSE daylight
06 Mar - 07:34:16 10° SSW 07:36:53 23° SE 07:39:34 10° E daylight
06 Mar - 09:09:54 10° WSW 09:13:06 64° NNW 09:16:20 10° ENE daylight
06 Mar - 10:46:58 10° WNW 10:49:54 31° N 10:52:51 10° ENE daylight
06 Mar - 12:23:39 10° WNW 12:26:47 45° NNE 12:29:55 10° E daylight
06 Mar - 14:00:09 10° WNW 14:03:13 40° SW 14:06:16 10° SE daylight
07 Mar - 06:42:23 10° SSE 06:44:02 14° SE 06:45:47 10° ESE daylight
07 Mar - 08:16:49 10° WSW 08:20:03 82° SSE 08:23:18 10° ENE daylight
07 Mar - 09:53:42 10° WNW 09:56:42 34° N 09:59:43 10° ENE daylight
07 Mar - 11:30:36 10° WNW 11:33:37 36° N 11:36:40 10° E daylight
07 Mar - 13:07:00 10° WNW 13:10:14 70° SSW 13:13:27 10° SE daylight
07 Mar - 14:45:01 10° WSW 14:46:11 11° SW 14:47:15 10° SSW daylight
08 Mar - 08:23:55 10° SW 08:27:02 47° SSE 08:30:11 10° ENE daylight
08 Mar - 10:00:25 10° W 10:03:31 41° NNW 10:06:37 10° ENE daylight
08 Mar - 11:37:27 10° WNW 11:40:25 31° N 11:43:23 10° ENE daylight
08 Mar - 13:13:56 10° WNW 13:17:10 72° NNE 13:20:24 10° ESE daylight
08 Mar - 14:50:51 10° W 14:53:20 20° SW 14:55:46 10° S daylight
09 Mar - 07:31:18 10° SSW 07:34:05 27° SE 07:36:54 10° E daylight
09 Mar - 09:07:09 10° WSW 09:10:21 57° NNW 09:13:34 10° ENE daylight
09 Mar - 10:44:14 10° WNW 10:47:10 31° N 10:50:07 10° ENE daylight
09 Mar - 12:20:53 10° WNW 12:24:02 49° NNE 12:27:12 10° E daylight
09 Mar - 13:57:24 10° WNW 14:00:24 34° SW 14:03:23 10° SSE daylight
